Time,TemperatureF,DewpointF,PressureIn,WindDirection,WindDirectionDegrees,WindSpeedMPH,WindSpeedGustMPH,Humidity,HourlyPrecipIn,Conditions,Clouds,dailyrainin,SoftwareType,DateUTC
2013-08-13 00:30:00,73.0,-99.9,-100.00,West,264,2.0,3.0,-999,-99.99,,,-99.99,,2013-08-13 06:30:00,
2013-08-13 01:22:00,73.0,-99.9,-100.00,West,264,2.0,3.0,-999,-99.99,,,-99.99,,2013-08-13 07:22:00,
2013-08-13 02:22:00,72.0,-99.9,-100.00,ENE,77,4.0,4.0,-999,-99.99,,,-99.99,,2013-08-13 08:22:00,
2013-08-13 02:32:00,72.0,-99.9,-100.00,ENE,77,4.0,4.0,-999,-99.99,,,-99.99,,2013-08-13 08:32:00,
2013-08-13 03:22:00,72.0,-99.9,-100.00,ESE,108,3.0,6.0,-999,-99.99,,,-99.99,,2013-08-13 09:22:00,
2013-08-13 03:33:00,72.0,-99.9,-100.00,ESE,108,3.0,6.0,-999,-99.99,,,-99.99,,2013-08-13 09:33:00,
2013-08-13 04:23:00,69.0,-99.9,-100.00,SSE,150,3.0,4.0,-999,-99.99,,,-99.99,,2013-08-13 10:23:00,
2013-08-13 04:32:00,69.0,-99.9,-100.00,SSE,150,3.0,4.0,-999,-99.99,,,-99.99,,2013-08-13 10:32:00,
2013-08-13 05:22:00,70.0,-99.9,-100.00,SE,124,3.0,4.0,-999,-99.99,,,-99.99,,2013-08-13 11:22:00,
2013-08-13 05:42:00,71.0,-99.9,-100.00,West,270,1.0,3.0,-999,-99.99,,,-99.99,,2013-08-13 11:42:00,
2013-08-13 06:12:00,70.0,-99.9,-100.00,SSW,211,3.0,6.0,-999,-99.99,,,-99.99,,2013-08-13 12:12:00,
2013-08-13 06:52:00,69.0,-99.9,-100.00,WNW,297,0.0,3.0,-999,-99.99,,,-99.99,,2013-08-13 12:52:00,
2013-08-13 07:30:00,66.0,-99.9,-100.00,NE,46,5.0,5.0,-999,-99.99,,,-99.99,,2013-08-13 13:30:00,
2013-08-13 07:42:00,66.0,-99.9,-100.00,ESE,111,4.0,6.0,-999,-99.99,,,-99.99,,2013-08-13 13:42:00,
2013-08-13 07:52:00,66.0,-99.9,-100.00,ESE,111,4.0,6.0,-999,-99.99,,,-99.99,,2013-08-13 13:52:00,
2013-08-13 08:22:00,66.0,-99.9,-100.00,NE,46,5.0,5.0,-999,-99.99,,,-99.99,,2013-08-13 14:22:00,
2013-08-13 09:50:00,68.0,-99.9,-100.00,East,84,2.0,6.0,-999,-99.99,,,-99.99,,2013-08-13 15:50:00,
2013-08-13 10:45:00,68.0,-99.9,-100.00,East,84,2.0,6.0,-999,-99.99,,,-99.99,,2013-08-13 16:45:00,
2013-08-13 11:30:00,67.0,-99.9,-100.00,West,267,1.0,3.0,-999,-99.99,,,-99.99,,2013-08-13 17:30:00,
2013-08-13 11:46:00,-999.0,-99.9,-100.00,SE,132,1.0,2.0,-999,-99.99,,,-99.99,,2013-08-13 17:46:00,
2013-08-13 12:25:00,67.0,-99.9,-100.00,West,267,1.0,3.0,-999,-99.99,,,-99.99,,2013-08-13 18:25:00,
2013-08-13 14:30:00,80.0,-99.9,-100.00,ESE,112,1.0,3.0,-999,-99.99,,,-99.99,,2013-08-13 20:30:00,
2013-08-13 15:24:00,80.0,-99.9,-100.00,ESE,112,1.0,3.0,-999,-99.99,,,-99.99,,2013-08-13 21:24:00,
2013-08-13 15:30:00,82.0,-99.9,-100.00,SSW,208,1.0,2.0,-999,-99.99,,,-99.99,,2013-08-13 21:30:00,
2013-08-13 16:23:00,82.0,-99.9,-100.00,SSW,208,1.0,2.0,-999,-99.99,,,-99.99,,2013-08-13 22:23:00,
2013-08-13 17:00:00,84.0,-99.9,-100.00,SSW,211,3.0,3.0,-999,-99.99,,,-99.99,,2013-08-13 23:00:00,
2013-08-13 17:27:00,84.0,-99.9,-100.00,ESE,121,3.0,3.0,-999,-99.99,,,-99.99,,2013-08-13 23:27:00,
2013-08-13 17:47:00,84.0,-99.9,-100.00,West,276,1.0,2.0,-999,-99.99,,,-99.99,,2013-08-13 23:47:00,
2013-08-13 17:57:00,84.0,-99.9,-100.00,SSW,211,3.0,3.0,-999,-99.99,,,-99.99,,2013-08-13 23:57:00,
2013-08-13 18:00:00,84.0,-99.9,-100.00,South,171,1.0,2.0,-999,-99.99,,,-99.99,,2013-08-14 00:00:00,
2013-08-13 18:52:00,84.0,-99.9,-100.00,South,171,1.0,2.0,-999,-99.99,,,-99.99,,2013-08-14 00:52:00,
2013-08-13 19:20:00,84.0,-99.9,-100.00,ESE,116,0.0,1.0,-999,-99.99,,,-99.99,,2013-08-14 01:20:00,
2013-08-13 19:42:00,85.0,-99.9,-100.00,South,189,0.0,3.0,-999,-99.99,,,-99.99,,2013-08-14 01:42:00,
2013-08-13 20:11:00,84.0,-99.9,-100.00,ESE,116,0.0,1.0,-999,-99.99,,,-99.99,,2013-08-14 02:11:00,
2013-08-13 20:42:00,80.0,-99.9,-100.00,West,261,1.0,3.0,-999,-99.99,,,-99.99,,2013-08-14 02:42:00,
2013-08-13 21:00:00,76.0,-99.9,-100.00,ENE,72,3.0,3.0,-999,-99.99,,,-99.99,,2013-08-14 03:00:00,
2013-08-13 21:53:00,76.0,-99.9,-100.00,ENE,72,3.0,3.0,-999,-99.99,,,-99.99,,2013-08-14 03:53:00,
2013-08-13 23:12:00,73.0,-99.9,-100.00,SW,217,2.0,2.0,-999,-99.99,,,-99.99,,2013-08-14 05:12:00,
2013-08-13 23:50:00,70.0,-99.9,-100.00,NW,324,1.0,1.0,-999,-99.99,,,-99.99,,2013-08-14 05:50:00,